Temp
-9 -9 -8 -8 -8 -8 -8 -8 -7 -7 -7 -7 -7 -7 -6 -6 -6 -6 -6 -7 -7 -7 -8 -8 -8 -8 -8 -8 -8 -8 -8 -8 -8 -8 -7 -8 -8 -8 -8 -8 -8 -8 -8 -8 -8
-8 -8 -8 -8 -8 -8 -8 -8 -8 -8 -8 -7 -7 -7 -7 -6 -6 -7 -7 -7 -7 -8 -8 -8 -9 -9 -8 -8 -8 -9 -8 -8 -9 -9 -8 -8 -8 -8 -8 -8 -8 -8 -8 -8 -8
-8 -8 -8 -8 -8 -8 -8 -8 -8 -8 -8 -8 -8 -7 -7 -7 -7 -7 -7 -7 -8 -9 -9 -9 -9 -9 -9 -9 -9 -8 -8 -9 -9 -8 -8 -8 -9 -9 -9 -9 -9 -9 -8 -8 -9
-7 -8 -8 -8 -8 -8 -8 -8 -8 -8 -8 -8 -8 -8 -7 -7 -7 -7 -8 -8 -8 -9 -9 -9 -10 -9 -8 -8 -8 -9 -9 -9 -9 -9 -9 -9 -8 -9 -9 -9 -9 -9 -8 -9 -8
-8 -8 -8 -8 -8 -8 -8 -8 -8 -9 -9 -8 -8 -8 -7 -8 -8 -8 -9 -9 -9 -9 -10 -10 -10 -10 -9 -8 -9 -9 -10 -10 -10 -10 -9 -9 -9 -9 -9 -9 -9 -9 -9 -9 -8
-8 -8 -8 -8 -8 -8 -8 -8 -8 -9 -9 -9 -9 -8 -8 -8 -9 -10 -10 -10 -10 -10 -10 -10 -9 -10 -10 -9 -10 -10 -10 -10 -10 -10 -10 -9 -9 -9 -9 -9 -9 -9 -10 -9 -8
-8 -8 -8 -8 -8 -8 -8 -8 -9 -9 -9 -9 -9 -8 -8 -9 -10 -10 -11 -10 -10 -10 -10 -10 -10 -10 -10 -9 -10 -11 -11 -11 -10 -10 -10 -9 -10 -9 -10 -9 -9 -9 -9 -9 -9
-8 -7 -8 -8 -8 -8 -8 -8 -9 -9 -9 -9 -9 -9 -9 -9 -10 -11 -11 -12 -11 -10 -11 -11 -11 -10 -10 -10 -10 -11 -11 -10 -10 -10 -10 -10 -9 -9 -10 -10 -9 -10 -10 -10 -9
-8 -8 -8 -8 -8 -8 -8 -8 -9 -9 -9 -9 -9 -9 -9 -10 -11 -11 -11 -12 -11 -11 -11 -11 -11 -11 -11 -10 -10 -10 -10 -10 -10 -10 -9 -9 -10 -10 -10 -10 -10 -11 -10 -10 -10
-8 -8 -8 -8 -8 -8 -8 -8 -9 -9 -10 -9 -9 -9 -10 -10 -11 -11 -12 -12 -12 -11 -11 -11 -11 -11 -11 -10 -10 -10 -10 -11 -10 -10 -10 -10 -10 -10 -10 -11 -10 -10 -10 -10 -10
-8 -8 -8 -8 -8 -8 -8 -8 -9 -10 -10 -9 -10 -9 -9 -10 -11 -12 -12 -12 -12 -11 -11 -12 -11 -11 -11 -11 -10 -11 -11 -11 -11 -11 -10 -11 -10 -11 -11 -11 -10 -10 -10 -11 -11
-8 -8 -8 -8 -8 -8 -8 -9 -9 -10 -10 -9 -10 -10 -10 -10 -10 -11 -12 -12 -12 -12 -12 -12 -11 -11 -11 -11 -11 -11 -11 -11 -10 -10 -11 -10 -10 -10 -11 -10 -10 -11 -11 -11 -12
-8 -8 -8 -8 -8 -8 -9 -9 -10 -10 -10 -10 -10 -10 -11 -11 -11 -11 -12 -12 -12 -12 -12 -12 -12 -12 -12 -11 -11 -11 -11 -10 -10 -10 -11 -10 -10 -10 -10 -10 -10 -11 -11 -11 -12
-8 -8 -8 -8 -8 -8 -9 -10 -10 -11 -10 -10 -10 -10 -11 -11 -11 -11 -12 -12 -12 -12 -12 -12 -12 -12 -12 -12 -12 -11 -11 -11 -10 -11 -11 -11 -11 -10 -11 -10 -10 -11 -12 -12 -13
-8 -8 -8 -8 -8 -9 -9 -10 -10 -11 -10 -10 -10 -10 -11 -12 -12 -11 -12 -13 -12 -11 -12 -11 -12 -12 -12 -12 -11 -11 -11 -11 -11 -11 -11 -11 -11 -10 -11 -11 -11 -11 -12 -12 -12
-8 -8 -8 -9 -8 -9 -9 -10 -10 -10 -10 -10 -11 -11 -12 -12 -12 -13 -13 -12 -12 -12 -12 -11 -12 -12 -12 -11 -11 -11 -12 -11 -11 -11 -11 -11 -11 -10 -10 -11 -11 -11 -11 -12 -12
-8 -8 -8 -8 -8 -9 -9 -10 -10 -10 -10 -11 -11 -11 -11 -12 -12 -12 -13 -12 -12 -12 -12 -12 -12 -12 -11 -11 -11 -12 -12 -12 -11 -11 -10 -10 -10 -10 -10 -11 -11 -11 -11 -12 -12
-8 -8 -8 -8 -9 -9 -9 -10 -10 -11 -10 -11 -11 -11 -11 -11 -12 -12 -12 -12 -12 -12 -12 -12 -12 -12 -11 -12 -12 -12 -12 -11 -11 -11 -10 -10 -10 -10 -11 -11 -11 -11 -11 -11 -12
-8 -8 -8 -8 -9 -9 -10 -10 -10 -10 -11 -11 -11 -11 -11 -11 -12 -12 -12 -12 -12 -12 -12 -11 -11 -11 -11 -11 -11 -11 -11 -11 -11 -11 -10 -10 -10 -11 -12 -12 -12 -11 -11 -12 -12
-8 -8 -8 -8 -9 -9 -10 -11 -10 -10 -10 -11 -11 -12 -12 -12 -11 -12 -12 -12 -12 -12 -12 -12 -11 -11 -11 -11 -11 -11 -11 -11 -11 -10 -10 -10 -10 -11 -12 -12 -12 -12 -12 -12 -13
-8 -8 -8 -8 -8 -9 -10 -10 -10 -11 -11 -11 -11 -12 -12 -12 -11 -12 -12 -12 -12 -12 -12 -12 -12 -11 -11 -11 -11 -11 -11 -12 -11 -11 -10 -10 -10 -12 -12 -12 -12 -12 -13 -13 -13
-8 -8 -8 -8 -9 -9 -9 -10 -10 -10 -11 -11 -11 -11 -13 -12 -12 -11 -12 -12 -12 -12 -12 -12 -11 -11 -11 -11 -11 -11 -11 -12 -11 -11 -10 -11 -11 -12 -12 -13 -13 -13 -14 -13 -13
-8 -9 -9 -9 -9 -9 -9 -9 -10 -10 -10 -11 -11 -11 -12 -12 -12 -12 -12 -12 -12 -12 -12 -11 -11 -11 -11 -11 -11 -11 -12 -11 -11 -10 -11 -11 -12 -12 -12 -12 -13 -13 -13 -13 -14
-9 -9 -9 -9 -9 -9 -10 -10 -10 -11 -11 -11 -11 -12 -12 -12 -11 -12 -12 -12 -12 -12 -12 -12 -11 -11 -11 -11 -11 -12 -11 -11 -11 -11 -11 -12 -11 -13 -13 -13 -13 -13 -13 -14 -15
-9 -9 -9 -9 -9 -9 -10 -10 -11 -11 -11 -11 -11 -12 -12 -12 -12 -12 -12 -12 -12 -12 -12 -11 -12 -12 -12 -12 -12 -12 -12 -11 -11 -11 -11 -12 -13 -13 -13 -13 -13 -13 -14 -14 -14
-10 -10 -10 -10 -10 -10 -10 -11 -11 -11 -11 -12 -11 -11 -12 -13 -12 -11 -12 -12 -11 -12 -12 -12 -11 -12 -12 -12 -12 -12 -12 -11 -11 -12 -12 -13 -13 -13 -13 -13 -13 -13 -14 -14 -15
-10 -10 -10 -10 -10 -10 -11 -11 -11 -11 -12 -12 -13 -12 -12 -11 -11 -12 -12 -12 -12 -12 -12 -12 -12 -12 -13 -12 -12 -12 -12 -13 -12 -12 -13 -12 -12 -12 -13 -13 -13 -14 -14 -15 -15
Height
5885 5885 5885 5886 5886 5886 5886 5886 5886 5886 5886 5886 5885 5885 5885 5885 5884 5882 5883 5886 5888 5890 5892 5895 5894 5892 5893 5895 5897 5897 5898 5899 5898 5897 5895 5892 5891 5891 5889 5890 5889 5887 5886 5886 5884
5884 5884 5884 5884 5884 5884 5884 5884 5884 5885 5885 5885 5884 5884 5884 5884 5883 5882 5884 5885 5889 5891 5894 5894 5894 5894 5894 5894 5896 5898 5899 5898 5898 5897 5894 5893 5891 5889 5889 5889 5888 5886 5885 5883 5881
5883 5882 5881 5881 5881 5881 5882 5882 5882 5883 5883 5883 5882 5882 5882 5883 5883 5882 5883 5885 5889 5893 5893 5895 5895 5895 5894 5896 5897 5898 5898 5897 5897 5896 5894 5892 5891 5888 5888 5888 5887 5885 5883 5881 5880
5881 5879 5878 5878 5878 5878 5879 5879 5880 5880 5881 5881 5881 5881 5881 5881 5882 5881 5882 5885 5888 5893 5894 5895 5896 5895 5896 5896 5896 5896 5896 5895 5895 5895 5893 5893 5890 5888 5887 5887 5884 5883 5880 5878 5877
5879 5878 5877 5876 5876 5876 5876 5876 5876 5877 5879 5879 5880 5879 5880 5880 5880 5881 5882 5885 5888 5892 5894 5894 5894 5895 5894 5895 5894 5893 5893 5894 5892 5891 5891 5890 5888 5886 5885 5883 5881 5881 5880 5877 5875
5878 5877 5876 5875 5874 5874 5873 5873 5873 5874 5875 5877 5878 5878 5879 5880 5879 5880 5881 5884 5889 5891 5892 5894 5895 5894 5895 5894 5893 5893 5893 5893 5892 5890 5889 5889 5887 5885 5883 5880 5877 5877 5876 5875 5873
5877 5876 5875 5874 5873 5872 5872 5871 5871 5872 5874 5876 5877 5877 5878 5879 5879 5880 5881 5883 5889 5890 5891 5893 5894 5894 5894 5893 5892 5892 5892 5891 5890 5888 5886 5886 5886 5883 5880 5877 5875 5873 5872 5870 5870
5876 5875 5874 5873 5872 5871 5871 5870 5871 5872 5873 5874 5875 5876 5878 5878 5879 5879 5881 5884 5887 5890 5891 5892 5893 5893 5892 5891 5891 5890 5889 5888 5888 5886 5886 5886 5884 5882 5880 5878 5876 5872 5869 5866 5864
5875 5874 5873 5871 5871 5870 5870 5869 5870 5871 5872 5873 5874 5875 5877 5878 5879 5880 5882 5882 5884 5890 5890 5891 5892 5892 5891 5890 5889 5888 5888 5886 5885 5884 5883 5882 5880 5880 5878 5876 5873 5871 5866 5863 5859
5874 5873 5871 5870 5869 5869 5869 5868 5869 5871 5872 5872 5873 5875 5875 5876 5878 5879 5880 5882 5884 5887 5891 5891 5891 5891 5890 5890 5890 5888 5887 5885 5883 5883 5881 5879 5878 5876 5874 5871 5868 5865 5862 5859 5854
5872 5872 5870 5869 5868 5868 5868 5868 5870 5872 5871 5872 5873 5872 5872 5875 5876 5877 5878 5880 5882 5886 5889 5890 5891 5890 5889 5889 5888 5887 5886 5883 5881 5879 5878 5875 5873 5872 5869 5866 5864 5860 5858 5854 5849
5871 5870 5869 5868 5867 5867 5867 5868 5869 5870 5870 5870 5870 5872 5872 5873 5874 5875 5877 5880 5882 5885 5886 5889 5890 5889 5888 5888 5887 5885 5884 5881 5879 5876 5874 5872 5870 5868 5864 5862 5858 5855 5851 5847 5844
5870 5869 5868 5867 5866 5867 5867 5867 5867 5868 5868 5869 5868 5869 5870 5870 5871 5873 5875 5877 5880 5882 5884 5886 5890 5887 5886 5886 5884 5882 5880 5879 5876 5872 5869 5867 5865 5863 5859 5856 5852 5849 5844 5841 5836
5868 5867 5866 5865 5866 5866 5865 5866 5866 5867 5867 5868 5867 5866 5867 5868 5869 5871 5872 5875 5877 5881 5882 5882 5886 5884 5883 5882 5880 5879 5876 5875 5873 5869 5866 5864 5857 5858 5854 5850 5847 5842 5837 5833 5830
5866 5865 5865 5863 5864 5865 5865 5864 5865 5866 5866 5866 5865 5865 5864 5865 5867 5869 5872 5873 5875 5879 5880 5883 5881 5880 5879 5878 5876 5875 5873 5871 5868 5865 5862 5859 5854 5855 5851 5846 5842 5837 5832 5829 5825
5864 5863 5863 5862 5862 5863 5862 5863 5863 5865 5864 5863 5863 5863 5864 5864 5865 5868 5869 5871 5873 5874 5873 5877 5877 5876 5874 5874 5872 5871 5869 5867 5864 5859 5856 5854 5850 5850 5844 5840 5835 5831 5828 5823 5819
5862 5862 5862 5861 5861 5860 5861 5862 5863 5862 5863 5862 5861 5862 5863 5865 5865 5866 5867 5869 5870 5871 5872 5873 5873 5873 5872 5871 5869 5867 5865 5861 5858 5856 5853 5848 5844 5842 5838 5833 5829 5824 5819 5815 5811
5859 5860 5860 5859 5859 5858 5859 5860 5860 5860 5859 5859 5860 5860 5861 5862 5862 5864 5865 5866 5868 5868 5868 5868 5871 5870 5869 5867 5865 5863 5862 5859 5850 5849 5848 5844 5837 5836 5832 5826 5821 5817 5813 5809 5806
5857 5857 5858 5857 5857 5856 5857 5857 5857 5857 5857 5859 5860 5860 5859 5860 5860 5861 5862 5864 5865 5866 5867 5866 5866 5865 5865 5864 5863 5858 5856 5854 5847 5842 5837 5836 5833 5831 5825 5820 5814 5810 5807 5803 5799
5855 5855 5855 5855 5854 5854 5855 5854 5854 5854 5855 5856 5856 5855 5854 5854 5855 5857 5858 5859 5861 5861 5861 5861 5861 5861 5861 5859 5857 5852 5850 5847 5845 5836 5831 5828 5825 5821 5817 5811 5806 5803 5799 5795 5791
5852 5852 5852 5852 5852 5852 5851 5851 5851 5851 5853 5854 5853 5851 5849 5846 5847 5850 5853 5855 5856 5857 5857 5857 5856 5857 5855 5852 5850 5847 5843 5840 5837 5834 5827 5821 5821 5816 5811 5806 5800 5796 5793 5789 5783
5849 5850 5850 5850 5851 5849 5848 5848 5849 5849 5850 5850 5850 5848 5845 5842 5842 5845 5849 5852 5853 5853 5852 5851 5849 5848 5847 5844 5841 5840 5838 5833 5830 5828 5823 5819 5818 5811 5805 5799 5793 5790 5786 5781 5775
5847 5848 5848 5848 5848 5847 5847 5846 5846 5846 5847 5847 5846 5843 5840 5840 5842 5842 5844 5846 5847 5848 5847 5846 5844 5841 5841 5839 5835 5833 5829 5827 5825 5822 5818 5814 5811 5804 5798 5793 5788 5783 5778 5773 5767
5845 5846 5846 5846 5846 5845 5845 5845 5845 5844 5843 5844 5844 5843 5842 5841 5840 5838 5841 5840 5842 5842 5841 5840 5837 5836 5834 5833 5831 5829 5826 5822 5819 5816 5812 5808 5803 5799 5794 5789 5782 5777 5772 5765 5758
5843 5843 5843 5843 5843 5842 5842 5842 5840 5840 5839 5839 5841 5840 5839 5839 5838 5837 5838 5838 5837 5836 5835 5833 5832 5830 5827 5826 5824 5823 5821 5818 5814 5810 5806 5802 5797 5792 5787 5781 5776 5770 5763 5756 5749
5840 5840 5840 5839 5839 5839 5839 5838 5836 5834 5833 5832 5832 5834 5835 5834 5833 5832 5832 5834 5834 5833 5831 5829 5828 5826 5823 5821 5819 5817 5814 5812 5809 5805 5801 5796 5791 5786 5780 5775 5768 5762 5756 5749 5742
5837 5837 5838 5837 5836 5836 5835 5834 5832 5830 5828 5826 5825 5825 5827 5827 5828 5829 5828 5829 5830 5828 5826 5825 5823 5821 5820 5817 5814 5812 5808 5805 5802 5798 5795 5792 5787 5781 5776 5770 5764 5756 5748 5739 5729
Wind_Speed
9 11 10 11 11 12 12 12 12 12 12 14 15 14 12 13 8 8 7 8 9 11 10 10 10 8 6 8 9 9 9 6 9 6 8 12 15 13 11 5 5 6 7 10 12
4 7 14 17 18 18 18 17 16 15 13 14 15 13 15 12 10 10 8 9 10 10 9 9 8 4 8 11 9 7 4 4 5 10 12 11 11 13 12 12 10 8 8 10 12
9 10 11 11 14 21 20 19 18 17 14 11 10 11 10 11 11 10 9 9 12 13 10 9 6 9 11 11 9 7 7 5 3 10 10 9 11 11 12 14 12 11 11 12 13
11 9 10 11 11 11 17 21 19 17 13 8 4 6 9 9 12 11 10 12 14 15 10 8 5 6 10 8 6 11 11 8 5 4 12 11 15 12 13 13 15 15 15 16 16
10 9 6 8 9 10 11 13 16 17 12 9 9 7 8 9 11 11 13 14 13 14 10 8 8 2 3 7 9 8 11 12 13 9 6 11 17 20 16 17 20 19 17 18 21
10 7 7 9 8 9 9 9 11 12 14 12 9 9 8 9 11 14 15 16 13 12 7 9 7 2 5 3 7 10 8 9 14 9 5 10 14 19 20 21 23 22 21 24 18
9 8 8 8 8 6 6 8 5 7 10 11 11 10 8 10 14 20 22 20 15 14 9 9 4 2 4 7 2 9 7 11 10 6 12 13 17 21 24 24 25 24 18 17 19
9 8 8 8 8 8 9 7 8 6 9 11 11 9 7 11 16 22 23 20 18 16 13 8 2 4 2 4 0 1 4 5 7 10 13 12 16 19 19 19 20 24 15 19 24
8 10 10 10 9 9 9 5 7 7 8 9 11 11 8 12 15 23 25 23 21 17 11 6 3 4 4 6 7 8 8 11 13 12 11 13 18 21 20 23 22 23 18 26 28
8 10 8 8 9 9 9 5 6 5 6 7 8 10 10 16 15 23 29 27 23 19 12 8 6 7 10 8 7 9 12 14 16 18 18 21 23 30 32 32 27 26 24 25 30
8 9 8 10 10 10 9 7 6 6 6 6 4 8 13 17 19 19 24 27 25 18 15 15 10 10 9 8 13 15 15 19 13 18 25 28 33 36 33 31 29 27 27 28 29
9 9 10 11 10 11 9 6 5 6 8 6 12 10 11 15 19 22 22 25 24 19 17 16 12 10 9 13 18 20 18 16 19 22 25 31 32 30 29 30 34 33 32 30 28
10 10 11 12 11 12 8 4 3 7 6 7 8 9 16 16 18 21 20 22 21 23 19 16 12 13 14 16 20 22 22 21 24 26 30 36 33 33 33 34 35 33 31 31 31
11 12 12 12 11 7 2 1 5 5 8 11 13 10 4 4 10 21 23 20 19 20 23 19 15 15 19 19 20 23 24 25 26 31 33 38 39 36 31 33 28 26 28 29 28
13 12 12 11 9 6 5 3 6 6 9 9 13 13 8 6 10 13 11 15 20 19 25 20 20 16 21 22 26 23 27 29 31 33 35 36 40 32 32 30 26 25 25 27 30
13 11 10 8 8 6 5 5 8 8 10 10 11 8 10 13 15 12 15 18 18 27 25 25 22 19 17 28 31 26 25 29 33 34 38 36 39 35 33 28 29 28 28 27 26
12 8 7 8 8 7 6 9 9 9 8 8 11 6 10 14 13 15 21 20 23 27 27 26 22 25 29 31 26 24 29 35 37 35 39 40 39 33 32 30 30 28 28 27 26
11 8 7 8 10 9 7 10 10 11 14 11 8 13 11 13 13 15 21 20 20 18 20 26 27 23 27 26 27 30 34 37 42 42 41 37 38 34 31 32 31 29 29 28 28
11 11 8 9 9 10 9 10 12 14 16 12 9 13 16 18 19 23 23 23 22 24 25 24 22 26 26 25 27 33 39 37 39 42 44 37 36 31 33 34 32 31 28 29 30
11 11 12 13 11 10 11 15 15 16 16 15 14 20 18 23 25 22 23 24 21 22 24 23 25 23 25 27 34 37 40 33 36 41 42 41 37 37 35 34 33 32 30 32 35
11 10 12 13 12 12 14 17 19 18 16 15 17 23 24 23 28 23 21 25 24 22 22 22 24 24 27 28 32 36 36 31 34 37 43 41 33 33 29 34 35 30 28 31 36
11 11 12 11 13 14 15 17 18 18 16 15 17 21 27 16 25 26 22 23 22 22 23 26 33 35 35 37 36 37 35 36 34 36 33 33 26 26 29 33 35 30 30 36 42
12 11 10 12 13 15 16 17 19 19 17 15 15 17 9 12 18 30 23 25 26 26 29 31 34 35 35 35 38 34 27 27 31 29 27 27 27 28 31 36 37 36 38 45 42
12 10 10 12 14 12 14 19 18 22 22 19 15 11 9 11 14 23 26 26 27 32 32 33 28 22 22 22 22 21 23 24 25 25 25 24 26 26 33 34 33 35 41 42 43
11 11 11 13 16 15 13 14 17 20 23 20 14 15 10 9 9 14 21 22 22 19 14 17 20 21 24 23 24 28 24 27 25 24 26 27 31 33 35 37 40 40 42 44 47
11 10 13 15 15 13 13 15 18 21 23 26 23 16 14 12 19 23 22 15 15 11 13 16 19 20 22 22 22 17 18 22 25 25 23 30 32 34 35 38 41 43 44 45 46
13 12 13 14 14 16 16 19 22 23 23 25 28 25 20 19 20 23 8 11 14 12 15 16 17 19 20 22 24 19 23 27 26 25 27 29 32 35 37 37 37 40 44 47 50
Wind_Direction
233 225 224 235 237 242 256 270 281 279 282 285 286 296 302 317 282 242 228 200 161 159 160 124 117 90 103 79 133 145 133 23 23 41 58 63 58 45 39 7 334 315 306 307 312
293 262 252 241 239 252 265 277 285 289 291 285 289 287 290 291 267 243 223 206 164 156 135 126 85 92 78 89 101 109 105 18 39 43 45 41 51 49 46 17 354 326 315 314 321
314 290 266 261 261 247 252 265 271 277 276 291 277 272 266 263 253 243 224 209 166 140 151 121 91 73 82 74 98 147 356 54 206 44 18 21 16 26 23 14 346 333 326 328 320
328 315 289 270 267 263 253 255 265 271 270 260 259 275 259 252 241 233 225 207 184 149 149 112 121 70 74 80 58 38 32 29 22 313 347 353 357 0 352 343 352 342 323 313 313
331 327 317 304 279 271 267 264 262 262 251 247 253 276 275 248 230 221 214 207 198 156 147 157 149 109 45 74 88 61 50 31 18 23 47 354 4 2 341 334 336 329 321 318 313
336 333 320 325 306 283 274 264 268 248 233 235 252 259 268 234 217 210 203 204 188 151 167 160 152 172 321 5 73 44 36 30 26 57 50 352 355 352 346 328 322 322 319 325 332
326 332 325 329 340 331 300 284 254 222 224 235 239 254 250 224 210 204 204 210 189 182 185 201 235 306 325 287 55 44 37 25 18 26 358 352 356 345 340 328 326 323 314 326 319
322 319 320 321 322 323 320 283 225 229 225 225 232 252 254 218 207 212 209 212 211 195 210 215 289 280 241 261 269 282 319 3 346 356 342 342 342 356 355 337 328 327 303 305 320
324 316 318 312 306 313 319 280 226 236 219 225 236 245 237 213 207 214 213 220 230 204 205 195 210 187 223 230 238 274 320 320 327 343 334 326 342 345 352 343 323 322 310 318 309
321 317 331 324 312 305 311 288 218 214 224 262 246 233 214 210 212 207 217 223 234 230 199 229 191 211 236 255 282 307 312 309 319 334 330 332 338 333 334 333 328 315 301 313 314
312 310 329 324 310 300 304 293 226 207 228 264 221 230 212 223 215 216 219 219 230 229 211 210 198 219 253 270 275 286 303 306 310 342 332 333 334 330 326 325 328 318 301 307 307
305 303 304 323 307 295 308 306 224 224 229 262 228 240 263 283 256 223 227 221 224 225 218 209 214 239 262 267 277 288 298 317 315 325 333 330 330 333 327 323 320 314 309 306 310
303 301 293 305 309 323 323 323 198 230 255 240 217 235 259 268 252 234 233 220 219 222 218 213 217 254 275 271 281 286 297 299 307 320 325 323 325 329 325 323 317 306 302 307 316
298 299 293 297 317 324 302 342 188 243 271 256 235 223 184 224 248 228 228 218 213 212 216 214 222 264 263 269 286 294 304 302 307 318 313 321 318 328 324 320 315 313 311 313 315
297 300 300 295 297 295 260 211 225 258 283 286 267 230 180 173 186 212 219 231 214 210 217 213 232 260 264 273 271 293 297 309 310 308 310 317 314 318 311 314 312 313 314 312 312
296 299 304 290 288 279 254 205 235 258 264 283 263 248 175 177 180 187 211 216 196 201 220 221 235 256 264 262 268 288 298 296 300 305 308 308 309 316 316 313 312 311 314 314 305
287 292 320 288 282 273 247 209 240 257 271 274 258 244 243 205 205 210 215 210 199 208 218 229 235 249 264 265 272 297 292 297 300 300 305 306 310 317 317 313 314 316 313 306 305
279 276 306 303 276 261 240 221 237 242 250 258 272 241 238 229 217 219 216 231 226 245 245 242 241 250 259 275 280 285 292 298 293 299 303 305 309 316 316 315 315 312 305 305 304
276 274 292 292 291 259 229 216 240 241 252 267 254 242 257 248 232 215 229 235 244 244 253 263 252 260 278 284 286 292 298 287 301 307 309 307 307 313 317 315 312 310 306 304 303
273 280 282 287 293 265 231 225 238 245 249 249 258 272 269 256 244 236 238 234 243 255 256 272 273 275 283 285 295 293 292 293 304 308 307 306 312 322 318 317 314 311 309 311 311
273 285 282 283 287 267 240 233 240 241 249 252 264 274 291 270 235 238 246 249 241 250 257 266 268 274 278 283 291 297 280 286 296 296 302 305 317 318 318 316 310 307 309 316 315
269 279 287 294 284 281 270 266 269 271 266 272 283 282 294 244 225 225 240 240 259 263 273 276 279 282 282 283 290 289 292 292 295 299 300 307 319 316 307 322 309 304 301 311 320
265 281 293 295 296 296 293 283 277 278 284 283 293 324 272 237 240 239 233 240 253 267 272 275 281 282 282 285 295 296 301 297 298 302 306 307 310 311 316 322 315 300 298 308 314
263 282 289 293 291 293 286 285 292 290 292 306 297 313 282 256 272 234 232 240 256 264 270 275 279 288 291 298 298 300 300 296 297 300 299 309 312 305 313 317 313 311 308 314 312
264 279 290 296 291 293 288 283 288 288 293 295 295 288 297 298 267 245 236 246 260 274 285 294 296 297 295 296 296 293 286 299 302 304 310 314 315 316 314 313 313 314 315 313 312
264 282 294 297 297 300 294 288 290 291 290 289 292 285 280 281 279 298 237 238 256 263 279 292 290 290 298 295 292 299 301 303 306 309 309 317 317 314 315 315 317 316 314 311 310
261 276 288 291 295 291 289 288 283 279 281 284 282 284 283 282 281 303 252 258 267 276 282 286 297 297 285 284 288 296 305 310 314 303 313 316 313 315 317 318 318 320 319 317 318